"Time","Temp","Dewpoint","Humidity","Pressure","Direction","Speed","Gust","Precip","PrecipRate"
"00:04:58","70.1","68","93","29.97","197","3.1","9","0.00","0.00"
"00:09:59","70.2","68.1","93","29.97","172","2.6","7","0.00","0.00"
"00:14:56","70.3","68.2","93","29.97","167","3.6","7","0.00","0.00"
"00:19:56","70.4","68.3","93","29.96","189","3.6","11","0.00","0.00"
"00:24:56","70.4","68.2","92.5","29.96","187","4.2","9.2","0.00","0.00"
"00:29:56","70.5","68.1","92","29.96","174","3.9","10.4","0.00","0.00"
"00:34:57","70.5","68.1","92","29.95","182","3.3","8.1","0.00","0.00"
"00:39:56","70.6","68.2","92","29.95","187","3.3","7","0.00","0.00"
"00:44:56","70.6","68.2","92","29.95","195","3.7","9.2","0.00","0.00"
"00:49:56","70.6","68.2","92","29.95","188","3","7","0.00","0.00"
"00:54:57","70.6","68.2","92","29.95","190","3.3","9.2","0.00","0.00"
"00:59:57","70.6","68.2","92","29.95","191","3.3","9","0.00","0.00"
"01:04:59","70.6","68.2","92","29.95","175","2.5","9.2","0.00","0.00"
"01:09:59","70.6","68.2","92","29.95","175","2.3","5","0.00","0.00"
"01:14:57","70.6","68.3","92.2","29.95","199","2.1","4","0.00","0.00"
"01:19:57","70.6","68.3","92.5","29.95","168","1.8","5","0.00","0.00"
"01:24:58","70.6","68.3","92.4","29.95","181","1.1","5","0.00","0.00"
"01:29:58","70.6","68.2","92","29.95","208","1.9","6","0.00","0.00"
"01:34:59","70.6","68.2","92","29.95","218","1.5","4","0.00","0.00"
"01:39:58","70.6","68.2","92","29.95","184","1.7","5","0.00","0.00"
"01:44:59","70.6","68.2","92","29.95","174","1.1","3.5","0.00","0.00"
"01:49:59","70.6","68.2","92","29.95","169","1.4","6","0.00","0.00"
"01:54:56","70.6","68.2","92","29.95","180","2.3","6","0.00","0.00"
"01:59:56","70.7","68.3","92","29.95","202","2.3","6","0.00","0.00"
"02:04:58","70.7","68.3","92","29.95","200","1.8","4","0.00","0.00"
"02:09:59","70.7","68.3","92","29.95","190","1.4","3.5","0.00","0.00"
"02:14:57","70.7","68.3","92","29.95","190","0.7","2.3","0.00","0.00"
"02:19:57","70.7","68.3","92","29.95","190","0.6","2.3","0.00","0.00"
"02:24:57","70.7","68.3","92","29.95","190","1.5","3.5","0.00","0.00"
"02:29:57","70.7","68.3","92","29.95","194","1.2","4","0.00","0.00"
"02:34:58","70.7","68.2","91.9","29.95","133","0.9","4","0.00","0.00"
"02:39:56","70.6","67.8","91","29.95","121","0.6","2.3","0.00","0.00"
"02:44:56","70.6","67.8","91","29.95","135","1.6","3.5","0.00","0.00"
"02:49:56","70.6","67.8","91","29.94","146","0.7","4","0.00","0.00"
"02:54:58","70.5","67.7","91","29.94","168","1.7","4","0.00","0.00"
"02:59:59","70.4","67.6","91","29.95","164","1.6","3.5","0.00","0.00"
"03:04:57","70.3","67.7","91.5","29.95","165","1.6","3.5","0.00","0.00"
"03:09:58","70.3","67.9","92","29.95","181","1.8","4","0.00","0.00"
"03:14:56","70.2","67.8","92","29.95","181","1.6","3.5","0.00","0.00"
"03:19:58","70.1","67.7","92","29.94","162","0.9","2.3","0.00","0.00"
"03:24:58","70.1","67.8","92.4","29.94","206","1.7","3.5","0.00","0.00"
"03:29:59","69.9","67.8","93","29.94","208","1","3.5","0.00","0.00"
"03:34:55","69.9","67.8","93","29.94","208","1.6","4","0.00","0.00"
"03:39:59","69.8","67.7","93","29.94","208","0.9","3.5","0.00","0.00"
"03:44:56","69.8","67.7","93","29.94","208","0.1","1.2","0.00","0.00"
"03:49:56","69.7","67.6","93","29.93","208","0","1.2","0.00","0.00"
"03:54:56","69.6","67.5","93","29.93","208","0.3","2.3","0.00","0.00"
"03:59:57","69.6","67.6","93.2","29.93","208","0.7","3.5","0.00","0.00"
"04:04:59","69.6","67.6","93.5","29.92","208","0.6","2.3","0.00","0.00"
"04:09:56","69.5","67.7","94","29.92","133","0.6","3.5","0.00","0.00"
"04:14:59","69.5","67.7","94","29.92","115","0","1.2","0.00","0.00"
"04:19:59","69.4","67.6","94","29.92","115","0.3","2.3","0.00","0.00"
"04:24:56","69.4","67.6","94","29.92","115","0","1.2","0.00","0.00"
"04:29:56","69.3","67.4","93.8","29.92","115","0","1.2","0.00","0.00"
"04:34:57","69.2","67.1","93.2","29.92","115","0.5","2.3","0.00","0.00"
"04:39:58","69","67","93.3","29.92","115","0.6","2.3","0.00","0.00"
"04:44:58","68.8","67","94","29.92","115","0","1","0.00","0.00"
"04:49:59","68.7","66.9","94","29.92","115","0.1","1.2","0.00","0.00"
"04:54:56","68.5","66.7","94","29.92","115","0","0","0.00","0.00"
"04:59:57","68.3","66.5","94","29.92","115","0","0","0.00","0.00"
"05:04:56","68.2","66.6","94.7","29.92","115","0","0","0.00","0.00"
"05:09:56","68.2","66.7","95","29.92","115","0","0","0.00","0.00"
"05:14:59","68.1","66.5","94.7","29.92","115","0","0","0.00","0.00"
"05:19:56","67.9","66.1","94","29.92","115","0","0","0.00","0.00"
"05:24:57","67.8","66.2","94.7","29.92","115","0","1.2","0.00","0.00"
"05:29:58","67.7","66.2","95","29.92","115","0","0","0.00","0.00"
"05:34:56","67.7","66.2","95","29.92","115","0.1","1.2","0.00","0.00"
"05:39:56","67.7","66.2","95","29.92","115","0","1.2","0.00","0.00"
"05:44:58","67.7","66.2","95","29.93","115","0.2","1.2","0.00","0.00"
"05:49:59","67.6","66.1","95","29.93","115","0.3","2.3","0.00","0.00"
"05:54:57","67.6","66.2","95.5","29.93","129","0.9","3.5","0.00","0.00"
"05:59:58","67.6","66.4","96","29.93","131","0.9","3.5","0.00","0.00"
"06:04:56","67.6","66.4","96","29.93","131","0.8","2.3","0.00","0.00"
"06:09:57","67.7","66.5","96","29.93","131","0.7","2.3","0.00","0.00"
"06:14:57","67.7","66.5","96","29.93","131","0.3","1.2","0.00","0.00"
"06:19:58","67.7","66.5","96","29.93","131","0","1","0.00","0.00"
"06:24:58","67.7","66.5","96","29.93","130","0.4","2.3","0.00","0.00"
"06:29:58","67.7","66.5","96","29.94","152","1.2","3.5","0.00","0.00"
"06:34:58","67.8","66.6","96","29.94","154","1","3.5","0.00","0.00"
"06:39:56","67.8","66.6","96","29.94","153","1.2","3.5","0.00","0.00"
"06:44:57","67.8","66.7","96","29.94","153","0","1.2","0.00","0.00"
"06:49:56","67.9","66.7","96","29.93","157","0.1","3","0.00","0.00"
"06:54:57","67.9","66.7","96","29.93","160","1.5","3.5","0.00","0.00"
"06:59:57","67.9","66.7","96","29.94","160","0.4","2.3","0.00","0.00"
"07:04:58","67.9","66.7","96","29.94","160","0.7","2.3","0.00","0.00"
"07:09:58","68","66.8","96","29.94","159","0.7","2.3","0.00","0.00"
"07:14:53","68","66.8","96","29.94","160","0.1","1.2","0.00","0.00"
"07:19:57","68.1","66.9","96","29.94","160","0.7","3.5","0.00","0.00"
"07:24:58","68.1","66.9","96","29.94","160","0.2","1.2","0.00","0.00"
"07:29:58","68.2","67","96","29.95","160","0","1","0.00","0.00"
"07:34:58","68.2","67","96","29.95","160","0.1","1.2","0.00","0.00"
"07:39:56","68.2","67","96","29.95","160","0.1","1.2","0.00","0.00"
"07:44:56","68.3","67.1","96","29.96","160","0.7","3.5","0.00","0.00"
"07:49:56","68.4","67.2","96","29.96","160","0.2","1.2","0.00","0.00"
"07:54:56","68.5","67.3","96","29.96","160","0.3","1.2","0.00","0.00"
"07:59:59","68.6","67.2","95.5","29.96","160","0.1","3","0.00","0.00"
"08:04:57","68.6","67.1","95","29.95","160","0.6","3.5","0.00","0.00"
"08:09:57","68.8","67.3","95","29.95","161","0.3","2.3","0.00","0.00"
"08:14:58","68.9","67.4","95","29.96","161","0.9","2.3","0.00","0.00"
"08:19:59","69.1","67.6","95","29.96","160","0.9","2.3","0.00","0.00"
"08:24:59","69.3","67.8","95","29.96","147","0.3","3","0.00","0.00"
"08:29:59","69.5","68","95","29.96","134","1.1","3.5","0.00","0.00"
"08:34:58","69.6","67.9","94.5","29.96","136","1.7","3.5","0.00","0.00"
"08:39:56","69.7","67.9","94","29.96","151","1.3","4","0.00","0.00"
"08:44:35","69.8","67.9","93.8","29.97","157","1","3.5","0.00","0.00"
"08:49:59","69.8","67.8","93.1","29.97","159","1.6","3.5","0.00","0.00"
"08:54:59","69.9","67.8","93","29.97","161","1.4","3.5","0.00","0.00"
"08:59:59","70.1","68.2","93.8","29.97","162","0.1","1.2","0.00","0.00"
"09:04:56","70.3","68.3","93.4","29.97","148","0.7","3.5","0.00","0.00"
"09:09:56","70.5","68.2","92.5","29.97","149","1.3","3.5","0.00","0.00"
"09:14:59","70.6","68.3","92.3","29.97","151","0.7","2.3","0.00","0.00"
"09:19:59","70.8","68.3","91.6","29.97","151","1.1","3.5","0.00","0.00"
"09:24:59","70.9","68.2","91.2","29.97","151","0.5","2.3","0.00","0.00"
"09:29:56","71.2","68.5","91.4","29.97","151","0","0","0.00","0.00"
"09:34:59","71.4","68.9","91.7","29.97","150","0.3","2.3","0.00","0.00"
"09:39:57","71.7","68.8","90.6","29.97","153","1.1","3.5","0.00","0.00"
"09:44:57","71.8","68.7","90.2","29.97","153","0.5","2.3","0.00","0.00"
"09:49:57","71.9","68.7","89.7","29.97","153","0.3","2.3","0.00","0.00"
"09:54:56","72","68.6","89.1","29.97","153","0.6","3.5","0.00","0.00"
"09:59:56","72.1","68.5","88.5","29.97","153","0.2","2.3","0.00","0.00"
"10:04:58","72.3","68.8","88.9","29.96","156","1.1","3.5","0.00","0.00"
"10:09:59","72.4","68.6","88.1","29.96","157","0.3","3.5","0.00","0.00"
"10:14:57","72.6","69.2","89","29.97","158","0.7","3.5","0.00","0.00"
"10:19:57","73.1","69.5","88.5","29.97","137","1","3.5","0.00","0.00"
"10:24:57","73.7","69.7","87.5","29.97","134","0","2.3","0.00","0.00"
"10:29:57","74.3","69.7","85.5","29.97","156","0","0","0.00","0.00"
"10:34:57","75","69.9","84","29.97","156","0","0","0.00","0.00"
"10:39:56","75.9","70.4","83.3","29.97","192","0","0","0.00","0.00"
"10:44:59","76.4","69.9","80.5","29.97","182","0","0","0.00","0.00"
"10:49:59","76.8","70.8","81.6","29.96","208","0","1.2","0.00","0.00"
"10:54:55","77.3","70.2","78.9","29.96","208","0","0","0.00","0.00"
"10:59:59","77.8","70","77.1","29.96","245","0.4","4","0.00","0.00"
"11:04:56","77.8","69.4","75.6","29.96","204","1.7","3.5","0.00","0.00"
"11:09:57","77.6","68.7","74.2","29.96","215","1.6","4","0.00","0.00"
"11:14:59","77.3","68","73","29.96","245","0.8","3.5","0.00","0.00"
"11:19:59","77.5","68.4","73.5","29.96","289","2.2","6","0.00","0.00"
"11:24:59","77.7","67.1","70","29.96","336","2.5","6","0.00","0.00"
"11:29:58","78.1","68.8","73.4","29.96","347","2.7","6","0.00","0.00"
"11:34:58","77.8","68.6","73.5","29.96","337","4.4","11.5","0.00","0.00"
"11:39:59","76.4","68.5","76.7","29.96","286","1.8","9.2","0.02","0.02"
"11:44:59","75.4","69.4","81.5","29.96","344","0.7","3.5","0.02","0.02"
"11:49:59","75.6","70.8","84.9","29.96","343","0.6","3","0.02","0.02"
"11:54:59","76.1","70.2","82.2","29.96","343","0.8","2.3","0.02","0.02"
"11:59:59","76.5","70.4","81.5","29.97","326","1.5","6","0.02","0.02"
"12:04:56","76.2","68.3","76.7","29.97","304","3","11.5","0.02","0.02"
"12:09:57","74.9","66.2","74.5","29.97","312","2.1","7","0.02","0.02"
"12:14:59","74","66.2","76.7","29.97","351","2.3","6","0.02","0.02"
"12:19:59","73.5","66.6","78.8","29.96","337","2.4","5","0.02","0.02"
"12:24:59","73.8","67.3","80.3","29.96","332","3.2","7","0.02","0.02"
"12:29:59","74.5","67.9","80","29.96","262","2.4","6","0.02","0.02"
"12:34:58","75.6","69.5","81.6","29.95","271","1.4","4","0.02","0.02"
"12:39:57","76.6","68.4","75.8","29.95","296","2.3","6","0.02","0.02"
"12:44:56","77.2","68.1","73.5","29.95","242","2.5","10.4","0.02","0.00"
"12:49:56","77.9","68.8","73.8","29.95","280","2","5","0.02","0.00"
"12:54:57","78.7","70.1","74.9","29.95","242","2.4","6","0.02","0.00"
"12:59:52","79.3","69.3","71.6","29.95","257","3","6","0.02","0.00"
"13:04:44","79.8","70.6","73.5","29.95","289","2.4","8","0.02","0.00"
"13:09:56","79.8","68.6","68.6","29.95","278","3.1","9","0.02","0.00"
"13:14:56","79.9","68.4","68.1","29.95","314","3.4","12","0.02","0.00"
"13:19:59","80.1","67.9","66.4","29.94","303","3.1","11.5","0.02","0.00"
"13:24:58","80.5","66.8","63.1","29.94","311","3.1","7","0.02","0.00"
"13:29:56","80.9","68.2","65.6","29.94","261","2.5","7","0.02","0.00"
"13:34:58","81.3","68","64.2","29.93","244","3","11","0.02","0.00"
"13:39:57","81.2","66.9","61.8","29.93","318","4.9","12","0.02","0.00"
"13:44:56","81.1","66.4","61.1","29.93","315","3.7","14","0.02","0.00"
"13:49:58","81.5","67.4","62.4","29.93","269","2.3","7","0.02","0.00"
"13:54:57","81.9","66.5","59.7","29.93","292","2.1","5","0.02","0.00"
"13:59:59","81.9","66","58.6","29.93","343","3.3","10.4","0.02","0.00"
"14:04:56","82","66","58.4","29.93","308","2.8","7","0.02","0.00"
"14:09:57","82","66.4","59.3","29.93","306","2","6","0.02","0.00"
"14:14:58","81.9","66.1","58.9","29.93","304","2.4","5.8","0.02","0.00"
"14:19:57","81.6","66","59.2","29.93","313","2.1","5","0.02","0.00"
"14:24:59","81.8","66.2","59.2","29.93","231","2.4","9","0.02","0.00"
"14:29:58","82.1","66.3","58.9","29.93","289","2.9","7","0.02","0.00"
"14:34:56","82.6","66.9","59.3","29.92","254","3","6","0.02","0.00"
"14:39:57","83","65.8","56.2","29.92","310","2.9","7","0.02","0.00"
"14:44:59","83","66.2","57","29.92","314","3.4","8.1","0.02","0.00"
"14:49:58","83.1","67","58.5","29.92","225","2.5","6","0.02","0.00"
"14:54:57","83.4","66.9","57.7","29.92","317","2.3","7","0.02","0.00"
"14:59:59","83.8","66.8","56.8","29.92","312","3.6","12","0.02","0.00"
"15:04:55","83.7","66.2","55.8","29.92","273","2.7","7","0.02","0.00"
"15:09:59","84.2","67.8","57.9","29.92","261","2.1","5","0.02","0.00"
"15:14:56","84.8","68.6","58.3","29.92","264","2.1","5","0.02","0.00"
"15:19:58","85.2","67.6","55.9","29.91","303","2.4","6","0.02","0.00"
"15:24:56","84.9","66.7","54.6","29.91","326","2.6","9","0.02","0.00"
"15:29:59","84.5","65.8","53.6","29.91","297","3","7","0.02","0.00"
"15:34:58","84.2","66.2","54.7","29.91","321","3.5","7","0.02","0.00"
"15:39:58","84.5","66.9","55.6","29.91","259","2.5","7","0.02","0.00"
"15:44:57","84.6","65.7","53.2","29.91","261","3.1","7","0.02","0.00"
"15:49:59","84.6","65.6","53.1","29.91","244","2.3","9","0.02","0.00"
"15:54:59","84.8","66","53.5","29.91","344","3.1","6","0.02","0.00"
"15:59:58","84.9","65.9","53","29.92","311","2.8","7","0.02","0.00"
"16:04:58","85.1","64.9","51","29.92","287","3.2","8.1","0.02","0.00"
"16:09:57","84.8","65.1","51.8","29.92","203","2.3","5.8","0.02","0.00"
"16:14:59","85.1","64.3","49.8","29.92","314","2.5","9","0.02","0.00"
"16:19:58","85.7","65.9","51.7","29.91","330","2.4","7","0.02","0.00"
"16:24:58","85.9","64.1","48.2","29.91","267","2.8","5","0.02","0.00"
"16:29:57","85.9","64.2","48.5","29.91","272","3.1","9.2","0.02","0.00"
"16:34:57","85.9","63.2","46.8","29.90","342","2.4","9","0.02","0.00"
"16:39:59","85.8","63.4","47.3","29.90","328","2.7","10.4","0.02","0.00"
"16:44:58","86","64.5","48.8","29.91","293","2.2","9.2","0.02","0.00"
"16:49:57","86.2","63.4","46.7","29.91","349","4.3","9.2","0.02","0.00"
"16:54:57","86","64.2","48.3","29.91","325","2.4","9.2","0.02","0.00"
"16:59:56","86","63","46.4","29.91","324","3.1","10","0.02","0.00"
"17:04:56","86.1","62.5","45.5","29.91","289","2.7","6","0.02","0.00"
"17:09:55","85.9","62.7","45.9","29.91","327","3.2","10.4","0.02","0.00"
"17:14:58","85.7","63.1","46.8","29.91","335","3.6","9.2","0.02","0.00"
"17:19:57","85.7","62.4","45.8","29.91","297","3","7","0.02","0.00"
"17:24:56","85.7","62.9","46.6","29.91","221","2.2","5.8","0.02","0.00"
"17:29:59","85.9","63.1","46.7","29.91","277","2.7","9.2","0.02","0.00"
"17:34:59","85.9","62.7","46","29.91","263","2.8","10","0.02","0.00"
"17:39:56","85.6","61.6","44.6","29.91","333","2.8","10.4","0.02","0.00"
"17:44:58","85.6","62.5","46","29.91","216","2.3","5","0.02","0.00"
"17:49:58","85.7","62.5","46","29.91","212","2.2","6","0.02","0.00"
"17:54:58","85.7","62.3","45.7","29.91","241","1.9","5","0.02","0.00"
"17:59:57","85.5","62.5","46.2","29.91","204","1.8","5","0.02","0.00"
"18:04:58","85.5","61.6","44.8","29.91","239","2.2","5","0.02","0.00"
"18:09:59","85.4","61.5","44.8","29.91","281","1.8","6","0.02","0.00"
"18:14:56","85.3","62","45.8","29.91","323","2.5","9.2","0.02","0.00"
"18:19:55","85.1","60.8","44.2","29.91","336","3.1","9.2","0.02","0.00"
"18:24:59","84.8","60.2","43.6","29.91","330","1.9","5.8","0.02","0.00"
"18:29:59","84.6","60.8","44.9","29.91","315","1.4","3.5","0.02","0.00"
"18:34:58","84.4","60.8","45.1","29.91","313","2.1","4","0.02","0.00"
"18:39:56","84.3","60.3","44.6","29.91","343","1.8","5","0.02","0.00"
"18:44:56","84.1","60.5","45","29.91","283","1.7","10","0.02","0.00"
"18:49:59","83.9","60.2","45","29.91","288","1.8","4","0.02","0.00"
"18:54:58","83.5","59.6","44.4","29.91","303","2.1","5","0.02","0.00"
"18:59:57","83.3","60.7","46.5","29.92","256","1.1","4","0.02","0.00"
"19:04:58","83.1","60.5","46.6","29.92","297","1","4","0.02","0.00"
"19:09:58","82.9","61.1","47.7","29.92","278","1.2","3.5","0.02","0.00"
"19:14:57","82.7","61.3","48.6","29.92","240","1.1","3.5","0.02","0.00"
"19:19:56","82.3","60.1","47.1","29.92","234","1.2","3.5","0.02","0.00"
"19:24:56","82.1","60.7","48.5","29.92","223","0.8","2.3","0.02","0.00"
"19:29:56","81.8","60.8","49.1","29.92","225","0.7","2.3","0.02","0.00"
"19:34:56","81.6","60.9","49.6","29.92","226","0.1","1.2","0.02","0.00"
"19:39:58","81.4","60.8","49.7","29.92","226","0.4","1.2","0.02","0.00"
"19:44:59","81.1","61.3","51.1","29.93","226","0","1.2","0.02","0.00"
"19:49:58","80.8","62","52.7","29.93","226","0","0","0.02","0.00"
"19:54:58","80.5","62.2","53.9","29.93","226","0","0","0.02","0.00"
"19:59:58","79.9","63.2","56.8","29.94","226","0.2","2","0.02","0.00"
"20:04:56","79.1","62.9","57.7","29.94","226","0.8","2.3","0.02","0.00"
"20:09:57","78.4","62.4","58.2","29.94","226","0.2","1.2","0.02","0.00"
"20:14:58","77.7","62.6","59.8","29.94","226","0","1.2","0.02","0.00"
"20:19:59","77.1","63.1","61.9","29.94","226","0","0","0.02","0.00"
"20:24:57","76.7","63.2","63","29.94","226","0","0","0.02","0.00"
"20:29:59","76.3","63.5","64.6","29.95","226","0","0","0.02","0.00"
"20:34:57","75.7","63.5","66","29.95","226","0.1","1.2","0.02","0.00"
"20:39:58","75.2","62.9","65.6","29.95","226","0.2","1.2","0.02","0.00"
"20:44:56","74.6","63","67.1","29.95","226","0","0","0.02","0.00"
"20:49:58","74.1","63.4","69.3","29.95","226","0","0","0.02","0.00"
"20:54:56","73.7","63.8","71.3","29.95","226","0","0","0.02","0.00"
"20:59:58","73.2","63.3","71.3","29.96","226","0","0","0.02","0.00"
"21:04:56","72.7","63.1","71.9","29.96","226","0","0","0.02","0.00"
"21:09:58","72.2","63.1","73","29.96","226","0","0","0.02","0.00"
"21:14:59","71.8","63.1","74","29.97","226","0","0","0.02","0.00"
"21:19:56","71.4","63","74.8","29.97","226","0","0","0.02","0.00"
"21:24:58","71.1","63","75.5","29.97","226","0","0","0.02","0.00"
"21:29:59","71","63.5","77.3","29.97","226","0","0","0.02","0.00"
"21:34:58","70.9","63.3","77.1","29.97","226","0","0","0.02","0.00"
"21:39:58","70.8","63","76.3","29.97","226","0","0","0.02","0.00"
"21:44:59","70.6","62.6","75.8","29.98","226","0","0","0.02","0.00"
"21:49:58","70.3","62.6","76.7","29.98","226","0","0","0.02","0.00"
"21:54:56","70","62.4","76.9","29.98","226","0","0","0.02","0.00"
"21:59:58","69.7","62.6","78.3","29.99","226","0","0","0.02","0.00"
"22:04:57","69.4","62.7","79.4","29.99","226","0","0","0.02","0.00"
"22:09:59","69.1","62.8","80.4","29.99","226","0","0","0.02","0.00"
"22:14:59","68.8","62.7","81","29.99","226","0","0","0.02","0.00"
"22:19:58","68.5","62.8","82","29.99","226","0","0","0.02","0.00"
"22:24:56","68.3","62.8","82.8","29.99","226","0","0","0.02","0.00"
"22:29:58","68","62.8","83.4","30.00","226","0","0","0.02","0.00"
"22:34:56","67.8","62.8","84","30.00","226","0","0","0.02","0.00"
"22:39:57","67.6","62.6","84","30.00","226","0","0","0.02","0.00"
"22:44:58","67.4","62.6","84.7","30.00","226","0","0","0.02","0.00"
"22:49:56","67.4","62.7","84.9","30.00","226","0","0","0.02","0.00"
"22:54:57","67.4","62.7","84.9","30.00","226","0","0","0.02","0.00"
"22:59:58","67.2","62.5","85","30.00","226","0","0","0.02","0.00"
"23:04:57","67","62.2","84.6","30.00","226","0","0","0.02","0.00"
"23:09:59","66.9","62.3","85.2","30.00","226","0","0","0.02","0.00"
"23:14:59","66.8","62.5","85.9","30.00","226","0","0","0.02","0.00"
"23:19:56","66.7","62.4","86","30.00","226","0","0","0.02","0.00"
"23:24:59","66.5","62.2","86","30.00","226","0","0","0.02","0.00"
"23:29:57","66.3","62","86","30.00","226","0","0","0.02","0.00"
"23:34:57","66.1","62","86.8","30.00","226","0","0","0.02","0.00"
"23:39:57","65.9","61.9","87","30.00","226","0","0","0.02","0.00"
"23:44:59","65.8","62","87.6","30.01","226","0","0","0.02","0.00"
"23:49:57","65.7","61.9","87.8","30.01","226","0","0","0.02","0.00"
"23:54:58","65.6","61.7","87.2","30.01","226","0","0","0.02","0.00"
"23:59:56","65.6","61.9","88","30.01","226","0","0","0.02","0.00"
